Check out our new BloomSky Weather System.

Active alerts


No alerts


Thunder radar  blitzortung!


Rain radar more information rain snow radar


Visit our other weather sites:

Template documentation
and downloads

And another site



Weather Underground History page Text

Daily Summary for March 6, 2017 Units:  Metric    English   Both
« Previous Day
Next Day »
Daily Weekly Monthly Yearly Custom
  High: Low: Average:
Temperature: 25.7 °C 20.5 °C 22.7 °C
Dew Point: 22.7 °C 19.7 °C 21 °C
Humidity: 96 % 81 % 90 %
Wind Speed: 22.5 km/h 1.6 km/h 9.7 km/h
Wind Gust: 33.8 km/h - -
Wind:- - SSE
Pressure: 1017.8 hPa 1012.8 hPa -
Precipitation: 1.27 mm    
Historical Graphs
 
 
Tabular Data for March 6, 2017
Time Temperature Dew Point Pressure Wind Wind Speed Wind Gust Humidity Rainfall Rate (Hourly)
00:04 20.5 °C 19.7 °C 1017.8 hPa South 6.4 km/h 20.9 km/h 95 % 0 mm
00:09 20.5 °C 19.7 °C 1017.8 hPa SW 17.7 km/h 20.9 km/h 95 % 0 mm
00:14 20.6 °C 19.8 °C 1017.8 hPa SE 8 km/h 20.9 km/h 95 % 0 mm
00:19 20.6 °C 19.8 °C 1017.8 hPa SSE 12.9 km/h 17.7 km/h 95 % 0 mm
00:24 20.6 °C 19.8 °C 1017.8 hPa SE 16.1 km/h 17.7 km/h 95 % 0 mm
00:29 20.6 °C 19.8 °C 1017.5 hPa ESE 12.9 km/h 19.3 km/h 95 % 0 mm
00:34 20.6 °C 19.8 °C 1017.5 hPa ESE 14.5 km/h 22.5 km/h 95 % 0 mm
00:39 20.6 °C 19.8 °C 1017.5 hPa South 8 km/h 22.5 km/h 95 % 0 mm
00:44 20.6 °C 19.8 °C 1017.5 hPa SSW 11.3 km/h 22.5 km/h 95 % 0 mm
00:49 20.7 °C 19.9 °C 1017.5 hPa SE 16.1 km/h 22.5 km/h 95 % 0 mm
00:54 20.7 °C 19.9 °C 1017.5 hPa South 6.4 km/h 19.3 km/h 95 % 0 mm
00:59 20.7 °C 19.9 °C 1017.5 hPa SE 9.7 km/h 22.5 km/h 95 % 0 mm
01:04 20.7 °C 19.9 °C 1017.5 hPa SSE 8 km/h 22.5 km/h 95 % 0 mm
01:09 20.7 °C 19.9 °C 1017.5 hPa SE 11.3 km/h 22.5 km/h 95 % 0 mm
01:14 20.7 °C 19.9 °C 1017.5 hPa SSE 11.3 km/h 19.3 km/h 95 % 0 mm
01:19 20.7 °C 19.9 °C 1017.2 hPa SE 11.3 km/h 19.3 km/h 95 % 0 mm
01:24 20.7 °C 19.9 °C 1017.2 hPa SE 9.7 km/h 17.7 km/h 95 % 0 mm
01:29 20.7 °C 19.9 °C 1017.2 hPa ESE 6.4 km/h 20.9 km/h 95 % 0 mm
01:34 20.7 °C 19.9 °C 1017.2 hPa ESE 6.4 km/h 20.9 km/h 95 % 0 mm
01:39 20.8 °C 20 °C 1017.2 hPa SE 8 km/h 20.9 km/h 95 % 0 mm
01:44 20.7 °C 19.9 °C 1017.2 hPa ESE 14.5 km/h 19.3 km/h 95 % 0 mm
01:49 20.8 °C 20 °C 1017.2 hPa SSW 8 km/h 19.3 km/h 95 % 0 mm
01:54 20.8 °C 20 °C 1017.2 hPa South 6.4 km/h 19.3 km/h 95 % 0 mm
01:59 20.8 °C 20 °C 1017.2 hPa SE 6.4 km/h 20.9 km/h 95 % 0 mm
02:04 20.8 °C 20 °C 1017.2 hPa SE 17.7 km/h 20.9 km/h 95 % 0 mm
02:09 20.8 °C 20 °C 1016.8 hPa SSE 6.4 km/h 20.9 km/h 95 % 0 mm
02:10 20.8 °C 20 °C 1016.8 hPa South 6.4 km/h 19.3 km/h 95 % 0 mm
02:15 20.8 °C 20 °C 1016.8 hPa SSE 6.4 km/h 19.3 km/h 95 % 0 mm
02:20 20.8 °C 20 °C 1016.8 hPa SSE 6.4 km/h 19.3 km/h 95 % 0 mm
02:25 20.8 °C 20 °C 1016.8 hPa SE 4.8 km/h 19.3 km/h 95 % 0 mm
02:30 20.8 °C 20 °C 1016.8 hPa SE 8 km/h 19.3 km/h 95 % 0 mm
02:35 20.8 °C 20 °C 1016.5 hPa ESE 9.7 km/h 19.3 km/h 95 % 0 mm
02:40 20.8 °C 20 °C 1016.5 hPa SE 17.7 km/h 19.3 km/h 95 % 0 mm
02:45 20.8 °C 20 °C 1016.5 hPa ESE 6.4 km/h 20.9 km/h 95 % 0 mm
02:50 20.8 °C 20 °C 1016.5 hPa SSE 6.4 km/h 20.9 km/h 95 % 0 mm
02:55 20.8 °C 20 °C 1016.5 hPa South 8 km/h 20.9 km/h 95 % 0 mm
03:00 20.8 °C 20 °C 1016.5 hPa SSE 4.8 km/h 16.1 km/h 95 % 0 mm
03:05 20.8 °C 20 °C 1016.5 hPa SE 12.9 km/h 19.3 km/h 95 % 0 mm
03:10 20.9 °C 20.1 °C 1016.1 hPa ESE 11.3 km/h 22.5 km/h 95 % 0 mm
03:15 20.8 °C 20 °C 1016.1 hPa SSE 12.9 km/h 22.5 km/h 95 % 0 mm
03:20 20.9 °C 20.1 °C 1016.1 hPa SSE 11.3 km/h 22.5 km/h 95 % 0 mm
03:25 20.8 °C 20 °C 1016.1 hPa SE 14.5 km/h 19.3 km/h 95 % 0 mm
03:30 20.8 °C 20 °C 1016.1 hPa South 11.3 km/h 19.3 km/h 95 % 0 mm
03:35 20.8 °C 20 °C 1016.1 hPa SE 8 km/h 19.3 km/h 95 % 0 mm
03:40 20.8 °C 20 °C 1016.1 hPa SSE 11.3 km/h 19.3 km/h 95 % 0 mm
03:45 20.8 °C 20 °C 1016.1 hPa SE 4.8 km/h 16.1 km/h 95 % 0 mm
03:50 20.8 °C 20 °C 1016.1 hPa SE 8 km/h 19.3 km/h 95 % 0 mm
03:55 20.8 °C 20 °C 1016.1 hPa ESE 16.1 km/h 22.5 km/h 95 % 0 mm
04:00 20.8 °C 20 °C 1016.1 hPa ESE 11.3 km/h 22.5 km/h 95 % 0 mm
04:05 20.8 °C 20 °C 1015.8 hPa SE 8 km/h 22.5 km/h 95 % 0 mm
04:10 20.8 °C 20 °C 1015.8 hPa ESE 9.7 km/h 17.7 km/h 95 % 0 mm
04:15 20.8 °C 20 °C 1015.8 hPa SE 3.2 km/h 16.1 km/h 95 % 0 mm
04:20 20.8 °C 20 °C 1015.8 hPa SE 6.4 km/h 14.5 km/h 95 % 0 mm
04:25 20.8 °C 20 °C 1015.8 hPa SE 4.8 km/h 14.5 km/h 95 % 0 mm
04:30 20.8 °C 20 °C 1015.8 hPa SE 8 km/h 14.5 km/h 95 % 0 mm
04:36 20.8 °C 20 °C 1015.8 hPa SSE 8 km/h 17.7 km/h 95 % 0 mm
04:41 20.8 °C 20 °C 1015.8 hPa SE 6.4 km/h 17.7 km/h 95 % 0 mm
04:46 20.8 °C 20 °C 1015.8 hPa SSE 6.4 km/h 17.7 km/h 95 % 0 mm
04:51 20.8 °C 20 °C 1015.8 hPa SE 1.6 km/h 17.7 km/h 95 % 0 mm
04:56 20.8 °C 20 °C 1015.8 hPa ESE 9.7 km/h 17.7 km/h 95 % 0 mm
05:01 20.8 °C 20 °C 1015.8 hPa SSE 4.8 km/h 16.1 km/h 95 % 0 mm
05:06 20.8 °C 20 °C 1015.8 hPa ESE 11.3 km/h 16.1 km/h 95 % 0 mm
05:11 20.8 °C 20 °C 1015.8 hPa East 11.3 km/h 16.1 km/h 95 % 0 mm
05:16 20.8 °C 20 °C 1015.8 hPa East 6.4 km/h 16.1 km/h 95 % 0 mm
05:21 20.8 °C 20 °C 1015.8 hPa SE 4.8 km/h 16.1 km/h 95 % 0 mm
05:26 20.8 °C 20 °C 1015.8 hPa SE 6.4 km/h 14.5 km/h 95 % 0 mm
05:31 20.8 °C 20 °C 1015.8 hPa SE 4.8 km/h 16.1 km/h 95 % 0 mm
05:36 20.8 °C 20 °C 1015.8 hPa SE 8 km/h 17.7 km/h 95 % 0 mm
05:41 20.8 °C 20 °C 1015.8 hPa ESE 6.4 km/h 17.7 km/h 95 % 0 mm
05:46 20.8 °C 20 °C 1015.8 hPa SSE 3.2 km/h 17.7 km/h 95 % 0 mm
05:51 20.8 °C 20 °C 1016.1 hPa SE 4.8 km/h 11.3 km/h 95 % 0 mm
05:56 20.8 °C 20 °C 1016.1 hPa ESE 4.8 km/h 11.3 km/h 95 % 0 mm
06:01 20.8 °C 20 °C 1016.1 hPa SE 8 km/h 11.3 km/h 95 % 0 mm
06:06 20.9 °C 20.1 °C 1016.1 hPa SE 1.6 km/h 11.3 km/h 95 % 0 mm
06:11 20.9 °C 20.1 °C 1015.8 hPa SE 6.4 km/h 11.3 km/h 95 % 0 mm
06:16 20.9 °C 20.1 °C 1016.1 hPa SSE 4.8 km/h 14.5 km/h 95 % 0 mm
06:21 20.9 °C 20.1 °C 1016.1 hPa SE 6.4 km/h 14.5 km/h 95 % 0 mm
06:26 20.9 °C 20.1 °C 1016.1 hPa ESE 9.7 km/h 14.5 km/h 95 % 0 mm
06:31 20.9 °C 20.1 °C 1016.1 hPa SE 6.4 km/h 12.9 km/h 95 % 0 mm
06:36 20.9 °C 20.1 °C 1016.1 hPa ENE 8 km/h 12.9 km/h 95 % 0 mm
06:41 20.9 °C 20.2 °C 1016.1 hPa ESE 3.2 km/h 12.9 km/h 96 % 0 mm
06:46 20.9 °C 20.2 °C 1016.1 hPa SE 8 km/h 12.9 km/h 96 % 0 mm
06:51 20.9 °C 20.2 °C 1015.8 hPa SSE 8 km/h 14.5 km/h 96 % 0 mm
06:56 20.9 °C 20.1 °C 1016.1 hPa ESE 6.4 km/h 14.5 km/h 95 % 0 mm
07:01 20.9 °C 20.1 °C 1016.1 hPa SE 6.4 km/h 14.5 km/h 95 % 0 mm
07:06 20.9 °C 20.2 °C 1016.1 hPa SE 4.8 km/h 14.5 km/h 96 % 0 mm
07:11 21 °C 20.3 °C 1016.1 hPa ESE 6.4 km/h 16.1 km/h 96 % 0 mm
07:16 21.1 °C 20.3 °C 1016.1 hPa SE 6.4 km/h 16.1 km/h 95 % 0 mm
07:21 21.1 °C 20.3 °C 1016.1 hPa East 8 km/h 16.1 km/h 95 % 0 mm
07:26 21.1 °C 20.3 °C 1016.1 hPa SE 6.4 km/h 14.5 km/h 95 % 0 mm
07:31 21.2 °C 20.4 °C 1016.1 hPa SE 3.2 km/h 12.9 km/h 95 % 0 mm
07:36 21.2 °C 20.4 °C 1016.1 hPa SE 3.2 km/h 11.3 km/h 95 % 0 mm
07:41 21.2 °C 20.4 °C 1016.1 hPa South 8 km/h 11.3 km/h 95 % 0 mm
07:46 21.2 °C 20.4 °C 1016.1 hPa SE 9.7 km/h 12.9 km/h 95 % 0 mm
07:51 21.2 °C 20.4 °C 1016.1 hPa ESE 8 km/h 17.7 km/h 95 % 0 mm
07:56 21.2 °C 20.4 °C 1016.1 hPa SE 6.4 km/h 17.7 km/h 95 % 0 mm
08:02 21.2 °C 20.4 °C 1016.1 hPa SE 8 km/h 17.7 km/h 95 % 0 mm
08:07 21.3 °C 20.5 °C 1016.1 hPa SSE 12.9 km/h 17.7 km/h 95 % 0 mm
08:12 21.3 °C 20.5 °C 1016.1 hPa SSE 12.9 km/h 17.7 km/h 95 % 0 mm
08:17 21.3 °C 20.5 °C 1016.5 hPa South 8 km/h 17.7 km/h 95 % 0 mm
08:22 21.4 °C 20.6 °C 1016.5 hPa SE 9.7 km/h 17.7 km/h 95 % 0 mm
08:27 21.4 °C 20.6 °C 1016.5 hPa ESE 8 km/h 17.7 km/h 95 % 0 mm
08:32 21.5 °C 20.7 °C 1016.5 hPa SE 11.3 km/h 17.7 km/h 95 % 0 mm
08:37 21.6 °C 20.8 °C 1016.5 hPa South 6.4 km/h 16.1 km/h 95 % 0 mm
08:42 21.6 °C 20.8 °C 1016.5 hPa ESE 14.5 km/h 16.1 km/h 95 % 0 mm
08:47 21.6 °C 20.8 °C 1016.5 hPa SE 4.8 km/h 16.1 km/h 95 % 0 mm
08:52 21.7 °C 20.9 °C 1016.5 hPa SE 16.1 km/h 16.1 km/h 95 % 0 mm
08:57 21.7 °C 20.9 °C 1016.5 hPa SE 4.8 km/h 19.3 km/h 95 % 0 mm
09:02 21.7 °C 20.7 °C 1016.5 hPa SSE 11.3 km/h 19.3 km/h 94 % 0 mm
09:07 21.7 °C 20.9 °C 1016.5 hPa ESE 9.7 km/h 19.3 km/h 95 % 0 mm
09:12 21.7 °C 20.9 °C 1016.5 hPa SE 11.3 km/h 19.3 km/h 95 % 0 mm
09:17 21.7 °C 20.9 °C 1016.5 hPa SSE 8 km/h 17.7 km/h 95 % 0 mm
09:22 21.7 °C 20.9 °C 1016.5 hPa SE 11.3 km/h 17.7 km/h 95 % 0 mm
09:27 21.8 °C 21 °C 1016.5 hPa South 9.7 km/h 17.7 km/h 95 % 0 mm
09:32 21.9 °C 21.1 °C 1016.5 hPa SSW 6.4 km/h 17.7 km/h 95 % 0 mm
09:37 22.1 °C 21.3 °C 1016.5 hPa SSE 3.2 km/h 22.5 km/h 95 % 0 mm
09:42 22.2 °C 21.2 °C 1016.8 hPa SSE 9.7 km/h 22.5 km/h 94 % 0 mm
09:47 22.3 °C 21.3 °C 1016.5 hPa SSE 12.9 km/h 22.5 km/h 94 % 0 mm
09:52 22.4 °C 21.4 °C 1016.5 hPa ESE 14.5 km/h 17.7 km/h 94 % 0 mm
09:57 22.6 °C 21.4 °C 1016.5 hPa SSE 9.7 km/h 22.5 km/h 93 % 0 mm
10:02 22.7 °C 21.3 °C 1016.5 hPa SSE 1.6 km/h 22.5 km/h 92 % 0 mm
10:07 22.7 °C 21.2 °C 1016.5 hPa SSE 8 km/h 22.5 km/h 91 % 0 mm
10:12 22.7 °C 21.2 °C 1016.5 hPa SE 11.3 km/h 20.9 km/h 91 % 0 mm
10:17 22.8 °C 21.3 °C 1016.5 hPa SSE 6.4 km/h 20.9 km/h 91 % 0 mm
10:22 22.9 °C 21.4 °C 1016.5 hPa SE 14.5 km/h 20.9 km/h 91 % 0 mm
10:27 23.1 °C 21.5 °C 1016.5 hPa East 17.7 km/h 19.3 km/h 91 % 0 mm
10:32 23.3 °C 21.6 °C 1016.5 hPa SSE 4.8 km/h 19.3 km/h 90 % 0 mm
10:37 23.6 °C 21.7 °C 1016.5 hPa SSE 19.3 km/h 19.3 km/h 89 % 0 mm
10:42 23.6 °C 21.5 °C 1016.5 hPa SE 8 km/h 22.5 km/h 88 % 0 mm
10:47 23.6 °C 21.7 °C 1016.5 hPa SSE 8 km/h 27.4 km/h 89 % 0 mm
10:52 23.7 °C 21.6 °C 1016.5 hPa East 12.9 km/h 27.4 km/h 88 % 0 mm
10:57 23.6 °C 21.5 °C 1016.5 hPa South 9.7 km/h 27.4 km/h 88 % 0 mm
11:02 23.5 °C 21.4 °C 1016.5 hPa SSE 11.3 km/h 20.9 km/h 88 % 0 mm
11:07 23.6 °C 21.7 °C 1016.5 hPa South 9.7 km/h 19.3 km/h 89 % 0 mm
11:12 23.7 °C 21.6 °C 1016.5 hPa SE 16.1 km/h 20.9 km/h 88 % 0 mm
11:18 24 °C 21.9 °C 1016.5 hPa South 16.1 km/h 27.4 km/h 88 % 0 mm
11:23 24.2 °C 22.1 °C 1016.1 hPa SE 6.4 km/h 27.4 km/h 88 % 0 mm
11:28 24.5 °C 22.2 °C 1016.1 hPa SE 12.9 km/h 27.4 km/h 87 % 0 mm
11:33 25 °C 22.3 °C 1016.1 hPa SE 17.7 km/h 27.4 km/h 85 % 0 mm
11:38 24.9 °C 21.8 °C 1016.1 hPa SSE 11.3 km/h 27.4 km/h 83 % 0 mm
11:43 24.7 °C 21.8 °C 1016.1 hPa South 11.3 km/h 27.4 km/h 84 % 0 mm
11:48 24.7 °C 22 °C 1016.1 hPa SSE 17.7 km/h 27.4 km/h 85 % 0 mm
11:53 24.5 °C 22 °C 1016.1 hPa SSE 6.4 km/h 25.7 km/h 86 % 0 mm
11:58 24.3 °C 21.8 °C 1015.8 hPa SE 6.4 km/h 24.1 km/h 86 % 0 mm
12:03 24.1 °C 22 °C 1015.8 hPa SE 11.3 km/h 22.5 km/h 88 % 0 mm
12:08 23.7 °C 21.8 °C 1015.8 hPa SSW 11.3 km/h 22.5 km/h 89 % 0 mm
12:13 23.9 °C 22.2 °C 1015.8 hPa South 11.3 km/h 32.2 km/h 90 % 0 mm
12:18 24.1 °C 22.5 °C 1015.5 hPa SE 12.9 km/h 32.2 km/h 91 % 0 mm
12:23 24.2 °C 22.5 °C 1015.5 hPa South 4.8 km/h 32.2 km/h 90 % 0 mm
12:28 24.4 °C 22.5 °C 1015.1 hPa SE 12.9 km/h 22.5 km/h 89 % 0 mm
12:33 24.6 °C 22.5 °C 1015.1 hPa SE 6.4 km/h 22.5 km/h 88 % 0 mm
12:38 24.8 °C 22.5 °C 1015.1 hPa East 11.3 km/h 22.5 km/h 87 % 0 mm
12:43 25.1 °C 22.6 °C 1014.8 hPa South 14.5 km/h 30.6 km/h 86 % 0 mm
12:48 25.3 °C 22.4 °C 1014.8 hPa South 9.7 km/h 30.6 km/h 84 % 0 mm
12:53 25.6 °C 22.7 °C 1014.8 hPa SSE 12.9 km/h 33.8 km/h 84 % 0 mm
12:58 25.7 °C 22.6 °C 1014.8 hPa SE 12.9 km/h 33.8 km/h 83 % 0 mm
13:03 25.5 °C 22.2 °C 1014.4 hPa South 11.3 km/h 33.8 km/h 82 % 0 mm
13:08 25.4 °C 22.1 °C 1014.4 hPa SSE 4.8 km/h 25.7 km/h 82 % 0 mm
13:13 25.4 °C 22.3 °C 1014.4 hPa SSW 6.4 km/h 25.7 km/h 83 % 0 mm
13:18 24.9 °C 22 °C 1014.4 hPa SSE 9.7 km/h 22.5 km/h 84 % 0 mm
13:23 24.5 °C 22.2 °C 1014.4 hPa South 6.4 km/h 20.9 km/h 87 % 0.51 mm
13:28 24.3 °C 22.4 °C 1014.4 hPa South 11.3 km/h 20.9 km/h 89 % 0.51 mm
13:33 24.3 °C 22.4 °C 1014.1 hPa South 11.3 km/h 20.9 km/h 89 % 0.51 mm
13:38 24.3 °C 22.4 °C 1014.1 hPa SSE 8 km/h 19.3 km/h 89 % 0.51 mm
13:43 24.5 °C 22.4 °C 1014.1 hPa SW 16.1 km/h 17.7 km/h 88 % 0.51 mm
13:48 24.7 °C 22.4 °C 1013.8 hPa SSW 4.8 km/h 16.1 km/h 87 % 0.51 mm
13:53 24.9 °C 22.2 °C 1013.8 hPa South 9.7 km/h 25.7 km/h 85 % 0.51 mm
13:58 25 °C 21.9 °C 1013.8 hPa SSE 9.7 km/h 25.7 km/h 83 % 0.51 mm
14:03 24.8 °C 21.9 °C 1013.8 hPa ESE 9.7 km/h 25.7 km/h 84 % 0.51 mm
14:08 24.8 °C 21.9 °C 1013.8 hPa SSE 8 km/h 24.1 km/h 84 % 0.76 mm
14:13 24.9 °C 22.2 °C 1013.8 hPa WSW 11.3 km/h 24.1 km/h 85 % 0.76 mm
14:18 24.8 °C 21.9 °C 1013.8 hPa South 9.7 km/h 24.1 km/h 84 % 0.76 mm
14:23 24.8 °C 21.7 °C 1013.4 hPa SSE 20.9 km/h 24.1 km/h 83 % 0.25 mm
14:28 24.8 °C 21.7 °C 1013.8 hPa SSW 8 km/h 29 km/h 83 % 0.25 mm
14:33 24.7 °C 22 °C 1013.8 hPa SSW 12.9 km/h 29 km/h 85 % 0.25 mm
14:38 24.7 °C 22.4 °C 1013.4 hPa SSE 17.7 km/h 29 km/h 87 % 0.25 mm
14:43 24.8 °C 22.5 °C 1013.4 hPa SE 9.7 km/h 25.7 km/h 87 % 0.25 mm
14:48 24.8 °C 22.3 °C 1013.4 hPa South 8 km/h 25.7 km/h 86 % 0.25 mm
14:53 25.1 °C 22.6 °C 1013.4 hPa South 14.5 km/h 25.7 km/h 86 % 0.25 mm
14:58 25.4 °C 22.7 °C 1013.1 hPa South 9.7 km/h 24.1 km/h 85 % 0.25 mm
15:03 25.5 °C 22.4 °C 1013.1 hPa ESE 14.5 km/h 24.1 km/h 83 % 0.25 mm
15:08 25.4 °C 22.1 °C 1013.1 hPa SSE 19.3 km/h 24.1 km/h 82 % 0 mm
15:14 25.3 °C 21.8 °C 1013.1 hPa SSE 11.3 km/h 24.1 km/h 81 % 0 mm
15:19 25.2 °C 21.7 °C 1013.1 hPa SE 14.5 km/h 27.4 km/h 81 % 0 mm
15:24 25.1 °C 21.6 °C 1013.1 hPa SSE 19.3 km/h 27.4 km/h 81 % 0 mm
15:29 24.9 °C 21.6 °C 1013.1 hPa SSE 6.4 km/h 27.4 km/h 82 % 0 mm
15:34 24.8 °C 22.1 °C 1013.1 hPa SE 17.7 km/h 24.1 km/h 85 % 0 mm
15:39 24.4 °C 21.9 °C 1012.8 hPa SSE 19.3 km/h 24.1 km/h 86 % 0 mm
15:43 24.3 °C 22 °C 1012.8 hPa South 11.3 km/h 27.4 km/h 87 % 0 mm
15:47 24.3 °C 22 °C 1013.1 hPa South 11.3 km/h 27.4 km/h 87 % 0 mm
15:52 24.3 °C 22 °C 1012.8 hPa SE 8 km/h 27.4 km/h 87 % 0 mm
15:56 24.3 °C 22.2 °C 1012.8 hPa SE 4.8 km/h 22.5 km/h 88 % 0.25 mm
15:58 24.3 °C 22.2 °C 1012.8 hPa SSE 9.7 km/h 22.5 km/h 88 % 0.25 mm
15:59 24.3 °C 22.2 °C 1012.8 hPa ESE 12.9 km/h 22.5 km/h 88 % 0.25 mm
16:00 24.3 °C 22.2 °C 1012.8 hPa SE 14.5 km/h 22.5 km/h 88 % 0.51 mm
16:05 24.2 °C 22.1 °C 1012.8 hPa South 12.9 km/h 24.1 km/h 88 % 0.51 mm
16:10 24.2 °C 22.1 °C 1012.8 hPa South 12.9 km/h 24.1 km/h 88 % 0.51 mm
16:15 24.4 °C 21.9 °C 1012.8 hPa South 3.2 km/h 24.1 km/h 86 % 0.51 mm
16:20 24.7 °C 22 °C 1012.8 hPa SSE 14.5 km/h 24.1 km/h 85 % 0.51 mm
16:25 24.8 °C 22.1 °C 1012.8 hPa SSE 8 km/h 24.1 km/h 85 % 0.51 mm
16:30 24.9 °C 22 °C 1012.8 hPa ESE 12.9 km/h 27.4 km/h 84 % 0.51 mm
16:35 24.9 °C 21.8 °C 1012.8 hPa SE 17.7 km/h 27.4 km/h 83 % 0.51 mm
16:40 24.8 °C 21.7 °C 1012.8 hPa South 11.3 km/h 32.2 km/h 83 % 0.51 mm
16:42 24.8 °C 21.7 °C 1012.8 hPa SSE 22.5 km/h 32.2 km/h 83 % 0.51 mm
16:47 24.7 °C 21.6 °C 1012.8 hPa SSE 19.3 km/h 32.2 km/h 83 % 0.51 mm
16:52 24.6 °C 21.5 °C 1012.8 hPa SSE 9.7 km/h 32.2 km/h 83 % 0.51 mm
16:55 24.6 °C 21.5 °C 1012.8 hPa SSE 17.7 km/h 25.7 km/h 83 % 0.25 mm
17:00 24.5 °C 21.4 °C 1012.8 hPa East 4.8 km/h 29 km/h 83 % 0 mm
17:05 24.5 °C 21.6 °C 1012.8 hPa SE 11.3 km/h 29 km/h 84 % 0 mm
17:08 24.5 °C 21.6 °C 1012.8 hPa SSE 11.3 km/h 29 km/h 84 % 0 mm
17:11 24.4 °C 21.5 °C 1012.8 hPa ESE 9.7 km/h 29 km/h 84 % 0 mm
17:17 24.4 °C 21.5 °C 1012.8 hPa SE 14.5 km/h 24.1 km/h 84 % 0 mm
17:22 24.4 °C 21.5 °C 1012.8 hPa SE 9.7 km/h 27.4 km/h 84 % 0 mm
17:27 24.4 °C 21.5 °C 1012.8 hPa SSW 9.7 km/h 27.4 km/h 84 % 0 mm
17:32 24.3 °C 21.4 °C 1012.8 hPa SSE 9.7 km/h 27.4 km/h 84 % 0 mm
17:37 24.3 °C 21.4 °C 1012.8 hPa South 11.3 km/h 25.7 km/h 84 % 0 mm
17:42 24.2 °C 21.3 °C 1012.8 hPa SSW 17.7 km/h 25.7 km/h 84 % 0 mm
17:47 24.2 °C 21.3 °C 1012.8 hPa SE 9.7 km/h 25.7 km/h 84 % 0 mm
17:52 24.2 °C 21.3 °C 1012.8 hPa SSE 11.3 km/h 24.1 km/h 84 % 0 mm
17:57 24.1 °C 21.2 °C 1012.8 hPa SSE 17.7 km/h 25.7 km/h 84 % 0 mm
18:02 24 °C 21.3 °C 1012.8 hPa South 6.4 km/h 25.7 km/h 85 % 0 mm
18:07 23.9 °C 21.2 °C 1012.8 hPa South 6.4 km/h 25.7 km/h 85 % 0 mm
18:12 23.9 °C 21.2 °C 1012.8 hPa SE 8 km/h 25.7 km/h 85 % 0 mm
18:17 23.8 °C 21.3 °C 1012.8 hPa SE 4.8 km/h 25.7 km/h 86 % 0 mm
18:22 23.7 °C 21.2 °C 1012.8 hPa ESE 11.3 km/h 25.7 km/h 86 % 0 mm
18:25 23.7 °C 21.2 °C 1012.8 hPa SE 17.7 km/h 22.5 km/h 86 % 0 mm
18:31 23.6 °C 21.1 °C 1012.8 hPa SE 9.7 km/h 22.5 km/h 86 % 0 mm
18:36 23.4 °C 21.1 °C 1012.8 hPa ESE 11.3 km/h 20.9 km/h 87 % 0 mm
18:41 23.4 °C 21.1 °C 1012.8 hPa South 14.5 km/h 22.5 km/h 87 % 0 mm
18:46 23.3 °C 21 °C 1012.8 hPa SE 14.5 km/h 22.5 km/h 87 % 0 mm
18:51 23.2 °C 20.9 °C 1012.8 hPa SSE 6.4 km/h 22.5 km/h 87 % 0 mm
18:53 23.2 °C 20.9 °C 1012.8 hPa SE 8 km/h 22.5 km/h 87 % 0 mm
18:57 23.2 °C 21.1 °C 1012.8 hPa SSE 4.8 km/h 22.5 km/h 88 % 0 mm
19:00 23.1 °C 21 °C 1012.8 hPa SE 6.4 km/h 19.3 km/h 88 % 0 mm
19:01 23.1 °C 21 °C 1012.8 hPa SE 9.7 km/h 19.3 km/h 88 % 0 mm
19:07 23.2 °C 21.1 °C 1013.1 hPa ESE 11.3 km/h 24.1 km/h 88 % 0 mm
19:12 23.2 °C 21.1 °C 1013.1 hPa SSE 9.7 km/h 24.1 km/h 88 % 0 mm
19:17 23.2 °C 21.1 °C 1013.1 hPa ESE 6.4 km/h 24.1 km/h 88 % 0 mm
19:22 23.2 °C 21.1 °C 1013.1 hPa East 12.9 km/h 19.3 km/h 88 % 0 mm
19:27 23.3 °C 21.2 °C 1013.1 hPa South 4.8 km/h 20.9 km/h 88 % 0 mm
19:32 23.2 °C 21.1 °C 1013.1 hPa South 12.9 km/h 20.9 km/h 88 % 0 mm
19:37 23.2 °C 21.1 °C 1013.4 hPa ESE 14.5 km/h 20.9 km/h 88 % 0 mm
19:42 23.2 °C 21.1 °C 1013.4 hPa SE 9.7 km/h 22.5 km/h 88 % 0 mm
19:47 23.2 °C 21.1 °C 1013.4 hPa SE 8 km/h 22.5 km/h 88 % 0 mm
19:52 23.2 °C 21.1 °C 1013.4 hPa SSE 9.7 km/h 22.5 km/h 88 % 0 mm
19:57 23.2 °C 21.1 °C 1013.8 hPa SE 9.7 km/h 22.5 km/h 88 % 0 mm
20:02 23.2 °C 21.1 °C 1013.8 hPa SE 6.4 km/h 22.5 km/h 88 % 0 mm
20:07 23.2 °C 21.1 °C 1013.8 hPa South 9.7 km/h 22.5 km/h 88 % 0 mm
20:12 23.1 °C 21.2 °C 1013.8 hPa SSW 8 km/h 20.9 km/h 89 % 0 mm
20:17 23.1 °C 21.2 °C 1013.8 hPa SSE 6.4 km/h 17.7 km/h 89 % 0 mm
20:22 23.1 °C 21.2 °C 1013.8 hPa SE 6.4 km/h 17.7 km/h 89 % 0 mm
20:27 23.1 °C 21.2 °C 1013.8 hPa SSW 11.3 km/h 17.7 km/h 89 % 0 mm
20:32 23.1 °C 21.2 °C 1014.1 hPa South 11.3 km/h 14.5 km/h 89 % 0 mm
20:37 23.1 °C 21.2 °C 1013.8 hPa SE 11.3 km/h 20.9 km/h 89 % 0 mm
20:42 23 °C 21.1 °C 1014.1 hPa SSE 11.3 km/h 20.9 km/h 89 % 0 mm
20:47 23 °C 21.1 °C 1014.1 hPa SE 17.7 km/h 20.9 km/h 89 % 0 mm
20:52 23 °C 21.1 °C 1014.1 hPa SSE 11.3 km/h 29 km/h 89 % 0 mm
20:57 23 °C 21.1 °C 1014.1 hPa SE 8 km/h 29 km/h 89 % 0 mm
21:02 23 °C 21.1 °C 1014.1 hPa SSE 4.8 km/h 29 km/h 89 % 0 mm
21:08 22.9 °C 21 °C 1014.1 hPa SSE 14.5 km/h 25.7 km/h 89 % 0 mm
21:13 22.9 °C 21 °C 1014.4 hPa SE 8 km/h 20.9 km/h 89 % 0 mm
21:18 22.9 °C 21 °C 1014.4 hPa ESE 14.5 km/h 22.5 km/h 89 % 0 mm
21:23 22.9 °C 21 °C 1014.4 hPa SSW 11.3 km/h 22.5 km/h 89 % 0 mm
21:28 22.9 °C 21 °C 1014.1 hPa SE 12.9 km/h 22.5 km/h 89 % 0 mm
21:33 22.9 °C 21 °C 1014.4 hPa South 4.8 km/h 20.9 km/h 89 % 0 mm
21:38 22.9 °C 21 °C 1014.4 hPa SE 8 km/h 19.3 km/h 89 % 0 mm
21:43 22.9 °C 21 °C 1014.4 hPa SE 19.3 km/h 20.9 km/h 89 % 0 mm
21:48 22.9 °C 21.2 °C 1014.4 hPa SE 4.8 km/h 22.5 km/h 90 % 0 mm
21:53 22.9 °C 21.2 °C 1014.4 hPa South 8 km/h 22.5 km/h 90 % 0 mm
21:58 22.9 °C 21.2 °C 1014.4 hPa South 4.8 km/h 22.5 km/h 90 % 0 mm
22:03 22.8 °C 21.1 °C 1014.4 hPa SSE 8 km/h 14.5 km/h 90 % 0 mm
22:08 22.8 °C 21.1 °C 1014.4 hPa SSW 4.8 km/h 14.5 km/h 90 % 0 mm
22:13 22.8 °C 21.1 °C 1014.4 hPa ESE 8 km/h 16.1 km/h 90 % 0 mm
22:18 22.8 °C 21.1 °C 1014.8 hPa South 4.8 km/h 19.3 km/h 90 % 0 mm
22:23 22.8 °C 21.1 °C 1014.4 hPa South 9.7 km/h 19.3 km/h 90 % 0 mm
22:28 22.8 °C 21.1 °C 1014.4 hPa SSW 8 km/h 20.9 km/h 90 % 0 mm
22:33 22.8 °C 21.3 °C 1014.4 hPa South 6.4 km/h 20.9 km/h 91 % 0 mm
22:38 22.7 °C 21.2 °C 1014.4 hPa SSW 9.7 km/h 20.9 km/h 91 % 0 mm
22:43 22.7 °C 21.2 °C 1014.4 hPa SSW 4.8 km/h 17.7 km/h 91 % 0 mm
22:48 22.7 °C 21.2 °C 1014.8 hPa ESE 12.9 km/h 16.1 km/h 91 % 0 mm
22:53 22.7 °C 21.2 °C 1014.4 hPa SSE 12.9 km/h 16.1 km/h 91 % 0 mm
22:58 22.7 °C 21.2 °C 1014.8 hPa SW 11.3 km/h 17.7 km/h 91 % 0 mm
23:03 22.7 °C 21.2 °C 1014.8 hPa SSE 12.9 km/h 17.7 km/h 91 % 0 mm
23:08 22.7 °C 21.2 °C 1014.8 hPa SE 9.7 km/h 17.7 km/h 91 % 0 mm
23:13 22.7 °C 21.2 °C 1014.8 hPa SE 6.4 km/h 22.5 km/h 91 % 0 mm
23:18 22.7 °C 21.3 °C 1014.8 hPa SSE 6.4 km/h 22.5 km/h 92 % 0 mm
23:23 22.7 °C 21.3 °C 1014.8 hPa SSE 4.8 km/h 22.5 km/h 92 % 0 mm
23:28 22.6 °C 21.2 °C 1014.8 hPa SSE 4.8 km/h 16.1 km/h 92 % 0 mm
23:33 22.6 °C 21.2 °C 1014.8 hPa SSE 3.2 km/h 14.5 km/h 92 % 0 mm
23:38 22.6 °C 21.2 °C 1014.8 hPa South 6.4 km/h 14.5 km/h 92 % 0 mm
23:43 22.6 °C 21.2 °C 1014.8 hPa SSE 6.4 km/h 16.1 km/h 92 % 0 mm
23:48 22.6 °C 21.2 °C 1014.8 hPa SSE 4.8 km/h 16.1 km/h 92 % 0 mm
23:53 22.6 °C 21.2 °C 1014.4 hPa SE 8 km/h 16.1 km/h 92 % 0 mm
23:58 22.5 °C 21.1 °C 1014.4 hPa SE 16.1 km/h 16.1 km/h 92 % 0 mm
Spring, Texas: Villages of Bridgestone
Compliments of Weather Underground - 2.75 mb

Script developed by  Jim McMurry - jmcmurry@mwt.net Adapted for the template by  Wim van der Kuil - Leuven-Template.eu

You find our weather info also at:

UK Metoffice

WeatherCloud

Weather Underground

Mid-South Weather Network

AWEKAS

Citizen Weather Observer Program (CWOP)

HAMweather, WeatherForYou, PWS Weather

Equipment we use:

Weather-station
Davis Vantage Vue

Weather-program
Meteohub

Weather-server
Debian 7.9 x86 (Guest)

Provider
DreamHost

Davis Vantage Vue

Meteohub

Debian 7.9 x86 (Guest)

DreamHost